Location: Piotrkow Trybunalski
(51.4000°N, 19.6830°E)
Time: 15:06:52
(UTC+01:00)

Vanguard 2 - Pass Details

Date: 06 February 2023
Orbit: 553 x 2927 km, 32.9° (Epoch: 24 March)

Event Time Altitude Azimuth Distance (km) Brightness Sun altitude
Rises 02:45:15 0° 270° (W) 6,566 - -40.9°
Reaches altitude 10° 02:51:09 10° 257° (WSW) 5,710 - -40.1°
Maximum altitude 03:02:16 21° 217° (SW) 4,834 - -38.6°
Exits shadow 03:10:50 13° 184° (S) 5,142 11.4 -37.4°
Drops below altitude 10° 03:12:47 10° 177° (S) 5,333 11.6 -37.1°
Sets 03:18:05 0° 163° (SSE) 6,024 12.0 -36.3°
